This is the latest recevied weather packets stored in our database for station/object VA2RBQ-7. If no packets are shown the sender has not sent any weather packets the latest 10 day(s).
| Time | Temp. | Humidity | Pressure | Rain* | Wind** | Luminosity | Snow |
|---|---|---|---|---|---|---|---|
| 1787847353 | 17.22° C | 60% | 1020.9 hPa | 0 mm | - | - | - |
| 1787847051 | 17.78° C | 60% | 1020.9 hPa | 0 mm | - | - | - |
| 1787846748 | 18.89° C | 60% | 1021 hPa | 0 mm | - | - | - |
| 1787846446 | 19.44° C | 60% | 1021 hPa | 0 mm | - | - | - |
| 1787846143 | 19.44° C | 61% | 1021 hPa | 0 mm | - | - | - |
| 1787845840 | 19.44° C | 61% | 1021.1 hPa | 0 mm | - | - | - |
| 1787845538 | 19.44° C | 61% | 1021 hPa | 0 mm | - | - | - |
| 1787845235 | 18.89° C | 61% | 1021.1 hPa | 0 mm | - | - | - |
| 1787844933 | 19.44° C | 61% | 1021.1 hPa | 0 mm | - | - | - |
| 1787844630 | 19.44° C | 61% | 1021.2 hPa | 0 mm | - | - | - |
| 1787844327 | 17.78° C | 61% | 1021.3 hPa | 0 mm | - | - | - |
| 1787844025 | 17.22° C | 62% | 1021.2 hPa | 0 mm | - | - | - |
| 1787843722 | 18.89° C | 62% | 1021.2 hPa | 0 mm | - | - | - |
| 1787843420 | 18.89° C | 62% | 1021.1 hPa | 0 mm | - | - | - |
| 1787843117 | 18.33° C | 62% | 1021.3 hPa | 0 mm | - | - | - |
| 1787842814 | 18.33° C | 62% | 1021.2 hPa | 0 mm | - | - | - |
| 1787842512 | 17.78° C | 62% | 1021.1 hPa | 0 mm | - | - | - |
| 1787842209 | 17.78° C | 62% | 1021.2 hPa | 0 mm | - | - | - |
| 1787841907 | 17.22° C | 62% | 1021.2 hPa | 0 mm | - | - | - |
| 1787841604 | 16.67° C | 62% | 1021.4 hPa | 0 mm | - | - | - |
| 1787841301 | 18.33° C | 62% | 1021.3 hPa | 0 mm | - | - | - |
| 1787840999 | 17.78° C | 62% | 1021.3 hPa | 0 mm | - | - | - |
| 1787840696 | 17.22° C | 61% | 1021.3 hPa | 0 mm | - | - | - |
| 1787840394 | 16.67° C | 61% | 1021.3 hPa | 0 mm | - | - | - |
| 1787840091 | 16.11° C | 61% | 1021.3 hPa | 0 mm | - | - | - |
* Rain since midnight (hover to see other rain measurements)
** Current wind speed in m/s (hover to see current wind gust speed)